Regional Weather Roundup
Issued by NWS

Home | Current Version | Previous Version | Graphics & Text | Print | Product List | Glossary On
Versions: 1 2 3 4 5 6 7 8 9 10 11 12 13 14 15 16 17 18 19 20 21 22 23 24 25 26 27 28 29 30 31 32 33 34 35 36 37 38 39 40 41 42 43 44 45 46 47 48 49 50
000
ASUS43 KDTX 010310
RWRMI
MICHIGAN HOURLY REGIONAL WEATHER ROUNDUP
NATIONAL WEATHER SERVICE DETROIT/PONTIAC MI
1100 PM EDT FRI SEP 30 2016

NOTE: "FAIR" INDICATES FEW OR NO CLOUDS BELOW 12,000 FEET WITH NO
SIGNIFICANT WEATHER AND/OR OBSTRUCTION TO VISIBILITY.

MIZ047>049-052>055-059>063-066>070-074>076-081>083-010400-
SOUTHEAST LOWER MICHIGAN

CITY           SKY/WX    TMP DP  RH WIND       PRES   REMARKS
ADRIAN         CLOUDY    61  61 100 E6        30.08S
ALMA           LGT RAIN  60  60  99 NE8G16    30.14S
ANN ARBOR      CLOUDY    60  59  96 NE13G18   30.08F
BAD AXE        DRIZZLE   56  54  92 CALM      30.19S
CARO           CLOUDY    56  55  97 E7        30.17S
DETROIT CITY   CLOUDY    57  57 100 NE10      30.11F
DETROIT        LGT RAIN  59  59 100 NE10      30.09F FOG
FLINT          CLOUDY    57  56  96 E14       30.14S
GROSSE ILE     CLOUDY    62  60  96 NE5       30.07F
HILLSDALE      RAIN      59  57  94 E6        30.06F
HOWELL         CLOUDY    58  57  97 E9        30.10S

CITY           SKY/WX    TMP DP  RH WIND       PRES   REMARKS
JACKSON        CLOUDY    60  60 100 NE7       30.08F
LAMBERTVILLE   CLOUDY    62  60  94 CALM      30.07S
LANSING        CLOUDY    59  57  93 NE9       30.11F
LAPEER         CLOUDY    56  55  95 E5        30.16S
MASON          DRIZZLE   59  58  97 NE6       30.09F
MONROE         CLOUDY    62  61  98 NE3       30.07S
MT. CLEMENS    CLOUDY    57  55  94 NE16      30.10F
PONTIAC        CLOUDY    56  54  93 E12       30.11F
PORT HURON     CLOUDY    55  54  94 NE7       30.15S
TRI CITIES     LGT RAIN  58  57  97 E13G24    30.17S
MIDLAND        RAIN      57  56  97 E14       30.17S
TROY           CLOUDY    57  55  92 NE8       30.13F
SAGINAW HB     LGT RAIN  57  55  94 NE12      30.16R
$$
MIZ043>046-050>051-056>058-064>065-071>073-077>080-010400-
SOUTHWEST LOWER MICHIGAN

CITY           SKY/WX    TMP DP  RH WIND       PRES   REMARKS
BATTLE CREEK   CLOUDY    60  59  96 E10       30.08F
BENTON HARBOR  CLOUDY    60  56  86 NE7       30.05S
BIG RAPIDS     RAIN      59  58  94 E12G21    30.15S
COLDWATER      CLOUDY    60  59  98 NE7       30.06F
FREMONT        LGT RAIN  59  58  96 E12       30.12R
HOLLAND        CLOUDY    60  58  92 E8        30.09F
GRAND RAPIDS   CLOUDY    60  57  89 E16       30.10F
IONIA          CLOUDY    59  57  95 NE9       30.10F
KALAMAZOO      CLOUDY    60  56  86 E5        30.08S
LUDINGTON      RAIN      59  59  99 NE13      30.14S
MARSHALL       CLOUDY    59  59  99 E5        30.08S
MOUNT PLEASANT DRIZZLE   58  57  97 NE9G16    30.16S
MUSKEGON       CLOUDY    61  59  93 NE10      30.11R
SOUTH HAVEN    CLOUDY    61  59  94 E8        30.06S
$$
MIZ016>042-010400-
NORTHERN LOWER MICHIGAN

CITY           SKY/WX    TMP DP  RH WIND       PRES   REMARKS
ALPENA         CLOUDY    62  55  77 E10       30.25S
BEAVER ISLAND  CLOUDY    62  51  68 E16G24    30.25S
BELLAIRE       LGT RAIN  58  55  87 NE5       30.22S
CADILLAC       RAIN      56  55  95 E10       30.19R
CHARLEVOIX     CLOUDY    62  53  72 E15       30.26S
FRANKFORT      CLOUDY    60  55  84 E3        30.18S
GAYLORD        CLOUDY    58  52  80 NE8       30.23F
GRAYLING       CLOUDY    59  54  83 E10       30.21F
HARBOR SPRINGS CLOUDY    60  54  79 E12       30.24S
HOUGHTON LAKE  LGT RAIN  56  54  93 E8        30.21S
MANISTEE       RAIN      59  57  93 E10       30.16R
OSCODA         CLOUDY    58  54  86 CALM      30.21F
PELLSTON       CLOUDY    61  51  70 E8        30.25F
ROGERS CITY    PTCLDY    62  54  76 E10       30.27S
TRAVERSE CITY  CLOUDY    61  54  77 NE8       30.19R
$$
MIZ007>008-015-010400-
EASTERN UPPER MICHIGAN

CITY           SKY/WX    TMP DP  RH WIND       PRES   REMARKS
KINROSS        PTCLDY    58  47  66 E9        30.28F
MACKINAC ISLAN CLOUDY    62  52  71 E12G20    30.26S
NEWBERRY       MOCLDY    57  53  86 NE3       30.28R
S. S. MARIE    PTCLDY    59  48  67 NE6       30.28S
MUNISING         N/A     60  53  77 CALM      30.27S
$$
MIZ004>006-011>014-085-010400-
CENTRAL UPPER MICHIGAN

CITY           SKY/WX    TMP DP  RH WIND       PRES   REMARKS
MANISTIQUE     CLOUDY    61  51  69 E7        30.26S
ESCANABA       CLOUDY    64  51  62 E12       30.24S
MENOMINEE      CLOUDY    63  55  75 E17       30.21F
SAWYER-GWINN   CLOUDY    56  53  91 NE6       30.28S
$$
MIZ001>003-009>011-084-010400-
WESTERN UPPER MICHIGAN

CITY           SKY/WX    TMP DP  RH WIND       PRES   REMARKS
IRON MOUNTAIN  CLOUDY    55  50  83 N6        30.25S
HOUGHTON       CLEAR     57  45  64 E9        30.28F
COPPER HARBOR    N/A     53  51  93 SW5       30.29F
IRONWOOD       FOG       54  54 100 CALM      30.28F VSB 3/4
$$

ABBREVIATIONS USED IN REMARKS
   TC - TEMPERATURE IN CELSIUS
  WCI - WIND CHILL INDEX
   HX - HEAT INDEX
  VSB - VISIBILITY




USA.gov is the U.S. government's official web portal to all federal, state and local government web resources and services.